GW1852 Weather Reports


time (UTC)temp
C
wind
direction
speed
KPH
gust
KPH
rain 1hr
cm
rain 24hr
cm
rain mn
cm
humidity
%
barometer
mb
20260504081601 10 64 22.5 32.2 0.00 0.00 0.00 50 1015.7
20260504050023 13 64 32.2 43.5 0.00 0.00 0.00 37 1010.7
20260504044533 14 58 17.7 30.6 0.00 0.00 0.00 37 1010.3
20260504043029 15 70 19.3 30.6 0.00 0.00 0.00 35 1009.8
20260504041520 15 69 19.3 33.8 0.00 0.00 0.00 34 1009.6
20260504040022 15 72 25.7 37.0 0.00 0.00 0.00 35 1009.1
20260504034520 15 63 17.7 32.2 0.00 0.00 0.00 34 1009.0
20260504033018 16 69 22.5 33.8 0.00 0.00 0.00 32 1008.6
20260504031519 17 62 19.3 33.8 0.00 0.00 0.00 29 1008.4
20260504030016 17 63 16.1 29.0 0.00 0.00 0.00 25 1008.2
20260504024515 18 60 12.9 22.5 0.00 0.00 0.00 22 1007.8
20260504023014 19 55 11.3 20.9 0.00 0.00 0.00 21 1007.9
20260504021515 20 55 11.3 17.7 0.00 0.00 0.00 21 1007.9
20260504020012 20 51 12.9 19.3 0.00 0.00 0.00 20 1008.0
20260504014511 21 51 17.7 24.1 0.00 0.00 0.00 20 1007.9
20260504013017 22 45 19.3 27.4 0.00 0.00 0.00 19 1007.9
20260504011509 22 49 14.5 27.4 0.00 0.00 0.00 19 1007.9
20260504010007 22 54 20.9 27.4 0.00 0.00 0.00 18 1007.9
20260504004513 23 34 17.7 27.4 0.00 0.00 0.00 16 1008.1
20260504003003 23 36 12.9 20.9 0.00 0.00 0.00 17 1008.2
20260504001504 23 344 9.7 17.7 0.00 0.00 0.00 16 1008.3
20260503234558 23 6 9.7 14.5 0.00 0.00 0.00 17 1008.4
20260503233055 23 346 11.3 20.9 0.00 0.00 0.00 16 1008.6
20260503231556 23 322 9.7 14.5 0.00 0.00 0.00 16 1008.8
20260503230103 23 348 8.0 17.7 0.00 0.00 0.00 16 1008.9
20260503224557 23 15 14.5 20.9 0.00 0.00 0.00 16 1009.1
20260503223048 23 357 11.3 19.3 0.00 0.00 0.00 17 1009.2
20260503221546 23 309 9.7 17.7 0.00 0.00 0.00 15 1009.4
20260503220044 23 323 6.4 19.3 0.00 0.00 0.00 17 1009.6
20260503214543 23 340 11.3 20.9 0.00 0.00 0.00 19 1009.7
20260503213038 22 11 8.0 16.1 0.00 0.00 0.00 16 1010.1
20260503211548 22 8 8.0 19.3 0.00 0.00 0.00 16 1010.3
20260503210033 22 310 6.4 16.1 0.00 0.00 0.00 18 1010.5
20260503204533 22 325 6.4 19.3 0.00 0.00 0.00 18 1010.8
20260503203027 22 326 11.3 19.3 0.00 0.00 0.00 18 1011.0
20260503201525 22 325 9.7 19.3 0.00 0.00 0.00 18 1011.1
20260503200033 21 356 9.7 19.3 0.00 0.00 0.00 19 1011.2
20260503194521 21 331 11.3 17.7 0.00 0.00 0.00 21 1011.4
20260503193028 21 338 11.3 16.1 0.00 0.00 0.00 21 1011.6
20260503191518 21 297 6.4 14.5 0.00 0.00 0.00 21 1011.8
20260503190014 21 325 9.7 20.9 0.00 0.00 0.00 21 1012.0
20260503184513 21 299 11.3 17.7 0.00 0.00 0.00 21 1012.1
20260503183008 21 285 11.3 20.9 0.00 0.00 0.00 23 1012.4
20260503181506 20 356 9.7 19.3 0.00 0.00 0.00 22 1012.7
20260503180002 20 337 12.9 19.3 0.00 0.00 0.00 23 1012.9
20260503174601 20 350 9.7 19.3 0.00 0.00 0.00 24 1013.0
20260503173106 18 351 12.9 20.9 0.00 0.00 0.00 29 1013.2
20260503171553 17 326 8.0 12.9 0.00 0.00 0.00 31 1013.3